[[{"header":{"parameterUnit":"m.s-1","parameterCategory":2,"la1":30.2991,"la2":30.254,"lo1":-89.0895,"lo2":-89.0444,"dy":0.0017,"dx":0.0017,"nx":28,"ny":28,"refTime":"2024-05-11T21:00:00:Z","depth":"0","parameterNumber":2,"parameterNumberName":"U-component_of_CURRENTS"},"data":[0,0,0,0,0,0,0,0,0,0,0,0,0,0,0,0,0,0,0,0,0,0,0,0,0,0,0,0,0,0,0,0,0,0,0,0,0,0,0,0,0,0,0,0,0,0,0,0,0,0,0,0,0,0,0,0,0,0,-0.2506,-0.2506,0,-0.2515,-0.2515,-0.2515,-0.2481,-0.2481,-0.248,-0.2479,-0.2459,-0.2459,-0.2459,0,0,0,0,0,0,0,0,0,0,0,0,0,-0.2473,-0.2473,-0.2506,-0.2506,-0.2507,-0.2515,-0.2515,-0.2515,-0.2482,-0.2481,-0.2479,-0.2478,-0.2459,-0.2459,-0.2459,0,0,0,0,0,0,0,0,0,0,0,0,0,-0.2483,-0.2473,-0.2506,-0.2492,-0.2491,-0.2515,-0.2515,-0.2515,-0.2482,-0.248,-0.2479,-0.2478,-0.2459,-0.2459,-0.2459,-0.2487,0,0,-0.2461,-0.2461,0,0,0,0,0,0,0,0,-0.2483,-0.2484,-0.2494,-0.2493,-0.2492,-0.2497,-0.2496,-0.2505,-0.2482,-0.2484,-0.2479,-0.2477,-0.2471,-0.247,-0.2473,-0.2486,-0.2485,-0.2461,-0.2461,-0.2461,-0.2461,0,0,0,0,0,0,0,-0.2482,-0.2484,-0.2508,-0.2494,-0.2493,-0.249,-0.2489,-0.2497,-0.2483,-0.2484,-0.2481,-0.2485,-0.247,-0.2473,-0.2472,-0.2485,-0.2461,-0.2461,-0.2461,-0.2461,-0.2473,-0.2473,0,0,0,0,0,0,-0.2485,-0.2483,-0.2508,-0.2508,-0.2486,-0.2491,-0.2491,-0.2496,-0.2483,-0.2481,-0.2486,-0.2484,-0.2473,-0.2472,-0.2471,-0.2488,-0.2461,-0.2461,-0.2462,-0.2473,-0.2473,-0.2473,0,0,0,0,0,0,-0.2484,-0.2487,-0.2508,-0.2497,-0.2499,-0.2493,-0.2499,-0.2496,-0.2494,-0.2486,-0.2482,-0.2485,-0.2472,-0.2471,-0.2471,-0.2487,-0.2461,-0.2462,-0.2473,-0.2473,-0.2473,-0.2531,0,0,0,0,0,0,-0.2483,-0.2487,-0.2488,-0.2497,-0.25,-0.2522,-0.25,-0.2498,-0.2499,-0.2496,-0.2484,-0.2481,-0.247,-0.247,-0.2471,-0.2487,-0.2462,-0.2473,-0.2473,-0.2473,-0.2529,-0.2533,-0.2536,0,0,0,0,0,-0.2482,-0.2492,-0.2488,-0.2491,-0.2504,-0.2523,-0.2524,-0.2514,-0.25,-0.2506,-0.2491,-0.2481,-0.2471,-0.2471,-0.2472,-0.2489,-0.2473,-0.2473,-0.2473,-0.2527,-0.2532,-0.2536,0,0,0,0,0,0,-0.2482,-0.249,-0.2486,-0.2498,-0.251,-0.2518,-0.2521,-0.2518,-0.2513,-0.2504,-0.249,-0.2487,-0.2495,-0.248,-0.248,-0.2488,-0.2468,-0.2468,-0.2508,-0.2513,-0.2517,-0.253,-0.2462,0,0,0,0,0,-0.2484,-0.2488,-0.2501,-0.2511,-0.2517,-0.252,-0.2525,-0.2521,-0.2521,-0.2517,-0.2509,-0.2497,-0.2499,-0.2495,-0.2494,-0.2504,-0.2465,-0.251,-0.2514,-0.2517,-0.2527,-0.2489,-0.249,-0.2474,-0.2474,-0.2474,0,0,-0.2486,-0.2491,-0.2494,-0.251,-0.2515,-0.2542,-0.2519,-0.253,-0.2548,-0.2517,-0.2529,-0.2516,-0.2505,-0.2515,-0.2516,-0.2502,-0.2494,-0.2517,-0.2521,-0.2528,-0.2489,-0.2491,-0.2492,-0.2474,-0.2474,-0.2474,0,0,-0.2504,-0.2499,-0.2514,-0.2528,-0.2542,-0.255,-0.2556,-0.2565,-0.256,-0.2575,-0.2555,-0.2546,-0.2551,-0.2542,-0.2541,-0.2563,-0.2521,-0.2561,-0.2591,-0.2554,-0.2555,-0.2556,-0.248,-0.2474,-0.2558,-0.2558,-0.2558,0,-0.2509,-0.2529,-0.2523,-0.2549,-0.2564,-0.2559,-0.259,-0.2596,-0.2601,-0.2595,-0.2583,-0.2573,-0.2566,-0.2573,-0.2585,-0.2574,-0.2533,-0.2579,-0.256,-0.256,-0.256,-0.2482,-0.2475,-0.2561,-0.2561,-0.256,-0.256,0,-0.2543,-0.2563,-0.2575,-0.2605,-0.2622,-0.2645,-0.2658,-0.2661,-0.2654,-0.2652,-0.2647,-0.263,-0.2618,-0.2618,-0.2618,-0.2616,-0.2578,-0.2575,-0.2552,-0.2565,-0.2482,-0.2473,-0.2565,-0.2564,-0.2563,-0.2562,0,0,-0.2544,-0.2591,-0.2594,-0.2611,-0.2652,-0.2662,-0.2695,-0.2712,-0.2712,-0.2708,-0.2703,-0.2711,-0.2683,-0.2679,-0.2662,-0.2639,-0.2601,-0.2617,-0.2614,-0.2548,-0.249,-0.2368,-0.2346,-0.2598,-0.2598,-0.2597,-0.2421,0,-0.2574,-0.2623,-0.2646,-0.2693,-0.2717,-0.2728,-0.2754,-0.2762,-0.2758,-0.275,-0.2723,-0.2713,-0.2712,-0.2696,-0.2682,-0.2625,-0.2585,-0.2647,-0.2482,-0.2476,-0.2373,-0.2335,-0.2227,-0.2054,-0.2412,-0.2411,-0.2409,0,-0.2591,-0.2625,-0.2673,-0.2716,-0.2727,-0.2755,-0.2768,-0.2792,-0.2788,-0.278,-0.2766,-0.2742,-0.2714,-0.2707,-0.261,-0.265,-0.2583,-0.2531,-0.2522,-0.2388,-0.2339,-0.2103,-0.2023,-0.1998,-0.2395,-0.2396,-0.2397,0,-0.2559,-0.2633,-0.2665,-0.2684,-0.2741,-0.2753,-0.2777,-0.2787,-0.2782,-0.2785,-0.2766,-0.2742,-0.2697,-0.264,-0.2541,-0.2575,-0.241,-0.2432,-0.2249,-0.2237,-0.2101,-0.2078,-0.1983,-0.2357,-0.2358,-0.2358,-0.2359,0,-0.2559,-0.2578,-0.2649,-0.266,-0.2678,-0.2733,-0.2732,-0.2752,-0.2766,-0.2736,-0.2767,-0.2717,-0.2682,-0.2586,-0.2521,-0.2331,-0.2379,-0.2236,-0.2185,-0.2112,-0.2094,-0.203,-0.2064,-0.2352,-0.2353,-0.2354,-0.2356,0,-0.2485,-0.2545,-0.257,-0.264,-0.2653,-0.2653,-0.2683,-0.2677,-0.2717,-0.2677,-0.2672,-0.2665,-0.2532,-0.2457,-0.2327,-0.226,-0.2059,-0.2044,-0.194,-0.1881,-0.1696,-0.1736,-0.1591,-0.1549,-0.181,-0.1806,-0.1803,0,-0.2441,-0.2452,-0.2514,-0.2514,-0.2537,-0.2554,-0.2551,-0.2619,-0.2616,-0.2614,-0.2581,-0.2484,-0.237,-0.2136,-0.1994,-0.1808,-0.1857,-0.1627,-0.1684,-0.1648,-0.1657,-0.1717,-0.17,-0.151,-0.1504,-0.15,-0.1496,0,-0.2339,-0.2362,-0.2379,-0.2382,-0.2388,-0.2394,-0.2412,-0.2403,-0.246,-0.2432,-0.2353,-0.2269,-0.2067,-0.1825,-0.1622,-0.1523,-0.1583,-0.1526,-0.1525,-0.1435,-0.1459,-0.1405,-0.1652,-0.1456,-0.146,-0.1463,-0.1465,-0.1467,-0.2227,-0.2207,-0.2221,-0.221,-0.2224,-0.2204,-0.2147,-0.2181,-0.2134,-0.2045,-0.207,-0.1873,-0.1711,-0.1397,-0.1304,-0.1115,-0.1236,-0.1084,-0.1136,-0.12,-0.1166,-0.1302,-0.1038,-0.1039,-0.1041,-0.1042,-0.1043,0,-0.2056,-0.2048,-0.204,-0.202,-0.1974,-0.2035,-0.2015,-0.1931,-0.1818,-0.176,-0.1639,-0.1364,-0.1151,-0.1042,-0.0843,-0.0763,-0.0801,-0.0758,-0.0849,-0.0851,-0.0971,-0.0967,-0.0632,-0.0632,-0.0632,-0.0632,-0.0632,-0.0632,-0.1955,-0.1882,-0.1887,-0.1759,-0.1748,-0.162,-0.1569,-0.1483,-0.1408,-0.1163,-0.0991,-0.088,-0.0817,-0.0757,-0.0642,-0.0606,-0.0642,-0.0591,-0.0663,-0.0786,-0.0823,-0.0859,-0.0862,-0.051,-0.051,-0.0507,-0.0507,-0.0507]},{"header":{"parameterUnit":"m.s-1","parameterCategory":2,"la1":30.2991,"la2":30.254,"lo1":-89.0895,"lo2":-89.0444,"dy":0.0017,"dx":0.0017,"nx":28,"ny":28,"refTime":"2024-05-11T21:00:00:Z","depth":"0","parameterNumber":3,"parameterNumberName":"V-component_of_CURRENTS"},"data":[0,0,0,0,0,0,0,0,0,0,0,0,0,0,0,0,0,0,0,0,0,0,0,0,0,0,0,0,0,0,0,0,0,0,0,0,0,0,0,0,0,0,0,0,0,0,0,0,0,0,0,0,0,0,0,0,0,0,-0.0612,-0.0612,0,-0.0557,-0.0556,-0.0555,-0.0518,-0.0517,-0.0517,-0.0517,-0.0417,-0.0414,-0.0412,0,0,0,0,0,0,0,0,0,0,0,0,0,-0.0648,-0.0648,-0.0612,-0.0612,-0.0611,-0.0557,-0.0556,-0.0555,-0.0518,-0.0517,-0.0517,-0.0517,-0.0418,-0.0415,-0.0412,0,0,0,0,0,0,0,0,0,0,0,0,0,-0.0616,-0.0648,-0.0612,-0.0586,-0.0583,-0.0557,-0.0556,-0.0555,-0.0518,-0.0517,-0.0517,-0.0517,-0.0418,-0.0415,-0.0411,-0.0395,0,0,-0.04,-0.0398,0,0,0,0,0,0,0,0,-0.0618,-0.0615,-0.0591,-0.0588,-0.0585,-0.0544,-0.0532,-0.05,-0.0518,-0.0542,-0.0517,-0.0517,-0.0456,-0.0449,-0.0439,-0.039,-0.0386,-0.04,-0.0397,-0.0396,-0.0395,0,0,0,0,0,0,0,-0.062,-0.0617,-0.059,-0.059,-0.0586,-0.0564,-0.056,-0.0526,-0.05,-0.054,-0.0537,-0.0532,-0.0454,-0.0443,-0.0436,-0.0385,-0.04,-0.0396,-0.0394,-0.0393,-0.0316,-0.0316,0,0,0,0,0,0,-0.0631,-0.0619,-0.0591,-0.0588,-0.0602,-0.0564,-0.0559,-0.0557,-0.0501,-0.0493,-0.0532,-0.053,-0.0449,-0.0441,-0.0433,-0.0429,-0.0396,-0.0392,-0.039,-0.0316,-0.0316,-0.0316,0,0,0,0,0,0,-0.0632,-0.0629,-0.0594,-0.0602,-0.0597,-0.0564,-0.0562,-0.0556,-0.0546,-0.0496,-0.0487,-0.0529,-0.0449,-0.0438,-0.0407,-0.0424,-0.0391,-0.0387,-0.0315,-0.0316,-0.0316,-0.0409,0,0,0,0,0,0,-0.0633,-0.063,-0.0634,-0.0603,-0.0596,-0.0587,-0.0562,-0.0555,-0.0544,-0.0541,-0.049,-0.0481,-0.0448,-0.0413,-0.0403,-0.0418,-0.0384,-0.0315,-0.0315,-0.0316,-0.0405,-0.0412,-0.0418,0,0,0,0,0,-0.0635,-0.0647,-0.0635,-0.0631,-0.0603,-0.0588,-0.0583,-0.0558,-0.0544,-0.0546,-0.051,-0.0482,-0.0408,-0.041,-0.0399,-0.0413,-0.0315,-0.0315,-0.0316,-0.0403,-0.0411,-0.0418,0,0,0,0,0,0,-0.0664,-0.0643,-0.0629,-0.0634,-0.0615,-0.0582,-0.0583,-0.0563,-0.0536,-0.0532,-0.0483,-0.0471,-0.0452,-0.0414,-0.0418,-0.039,-0.0357,-0.0356,-0.0427,-0.0434,-0.044,-0.0467,-0.0381,0,0,0,0,0,-0.0673,-0.0677,-0.0649,-0.0653,-0.0647,-0.0615,-0.0606,-0.0588,-0.056,-0.0548,-0.0512,-0.0472,-0.0444,-0.0426,-0.0393,-0.0375,-0.0324,-0.0376,-0.0382,-0.0388,-0.0401,-0.0345,-0.0348,-0.0317,-0.0317,-0.0317,0,0,-0.0686,-0.0675,-0.0677,-0.066,-0.0644,-0.0652,-0.0609,-0.0601,-0.0609,-0.054,-0.0537,-0.0493,-0.0444,-0.0429,-0.0417,-0.04,-0.0363,-0.0388,-0.0394,-0.0404,-0.0346,-0.0349,-0.0352,-0.0317,-0.0317,-0.0317,0,0,-0.0725,-0.0704,-0.0726,-0.0717,-0.07,-0.0679,-0.068,-0.0649,-0.0636,-0.0619,-0.0578,-0.0547,-0.0496,-0.0472,-0.0451,-0.0469,-0.0399,-0.0452,-0.0506,-0.0452,-0.0455,-0.0456,-0.0372,-0.0366,-0.0455,-0.0455,-0.0455,0,-0.0744,-0.0766,-0.0729,-0.0751,-0.0755,-0.0698,-0.0726,-0.0705,-0.0668,-0.0653,-0.063,-0.0558,-0.0522,-0.0505,-0.0518,-0.0487,-0.0429,-0.0486,-0.0462,-0.0463,-0.0463,-0.0376,-0.0368,-0.0459,-0.0459,-0.0458,-0.0458,0,-0.0807,-0.0821,-0.0833,-0.0843,-0.0838,-0.085,-0.0819,-0.0801,-0.0768,-0.0739,-0.0705,-0.0649,-0.0603,-0.059,-0.0564,-0.055,-0.0498,-0.0479,-0.045,-0.0472,-0.0378,-0.0368,-0.0466,-0.0464,-0.0463,-0.0462,0,0,-0.0857,-0.0877,-0.088,-0.0898,-0.089,-0.0889,-0.0895,-0.0876,-0.0859,-0.0819,-0.0794,-0.0764,-0.0712,-0.0686,-0.0639,-0.0604,-0.0555,-0.0552,-0.0547,-0.0479,-0.0407,-0.0338,-0.0319,-0.053,-0.0529,-0.0528,-0.0333,0,-0.092,-0.0986,-0.0972,-0.102,-0.1049,-0.1,-0.1003,-0.0972,-0.0923,-0.0876,-0.0815,-0.077,-0.0754,-0.0716,-0.0689,-0.0575,-0.0536,-0.0608,-0.0386,-0.0379,-0.0325,-0.0308,-0.0271,-0.0092,-0.0322,-0.0321,-0.0319,0,-0.099,-0.1024,-0.1095,-0.1102,-0.1106,-0.1118,-0.1088,-0.1082,-0.1002,-0.0956,-0.0902,-0.0827,-0.0765,-0.0743,-0.0596,-0.0636,-0.0545,-0.0465,-0.0455,-0.0357,-0.0292,-0.0109,-0.0063,0.0025,-0.0303,-0.0304,-0.0305,0,-0.1054,-0.11,-0.1159,-0.117,-0.1174,-0.1178,-0.1166,-0.1108,-0.1077,-0.0995,-0.0932,-0.0856,-0.0768,-0.0679,-0.0516,-0.0548,-0.0326,-0.0338,-0.0192,-0.0183,-0.0092,-0.0078,0.0052,-0.0253,-0.0253,-0.0254,-0.0254,0,-0.1129,-0.1167,-0.119,-0.1223,-0.1254,-0.1238,-0.1233,-0.1196,-0.112,-0.1054,-0.0976,-0.0878,-0.0748,-0.0596,-0.0497,-0.0288,-0.0303,-0.0193,-0.0134,-0.0119,-0.011,0.0018,0.0044,-0.0246,-0.0248,-0.0249,-0.025,0,-0.1185,-0.121,-0.1266,-0.1287,-0.1288,-0.1309,-0.1269,-0.1248,-0.1172,-0.1074,-0.1038,-0.0862,-0.0652,-0.0502,-0.0295,-0.0222,0.0024,0.0013,0.0038,0.0094,0.0276,0.0294,0.0489,0.0572,0.0197,0.02,0.0202,0,-0.1218,-0.1262,-0.1308,-0.1329,-0.1338,-0.1352,-0.1343,-0.1285,-0.1238,-0.1043,-0.0982,-0.0754,-0.0558,-0.0223,-0.0055,0.0158,0.0191,0.0297,0.0214,0.0301,0.0366,0.0357,0.041,0.0321,0.0324,0.0327,0.0329,0,-0.1268,-0.1286,-0.1327,-0.1374,-0.1388,-0.1391,-0.1365,-0.1321,-0.1209,-0.1085,-0.0852,-0.0674,-0.0333,-0.0046,0.0212,0.0312,0.0372,0.0355,0.0438,0.0466,0.0473,0.0577,0.0196,0.0352,0.035,0.0348,0.0347,0.0346,-0.1282,-0.1321,-0.1368,-0.1404,-0.1422,-0.1402,-0.1361,-0.1276,-0.1154,-0.0895,-0.0757,-0.0399,-0.0071,0.0313,0.0429,0.0651,0.0591,0.0683,0.0703,0.0689,0.0743,0.0421,0.0636,0.0635,0.0635,0.0634,0.0634,0,-0.1292,-0.1336,-0.1382,-0.142,-0.1429,-0.143,-0.1347,-0.1248,-0.1053,-0.0768,-0.0514,0.0018,0.0325,0.0599,0.0875,0.0981,0.0975,0.1021,0.1002,0.1044,0.0769,0.0744,0.1001,0.1001,0.1,0.1,0.1,0.1,-0.1295,-0.1347,-0.1379,-0.1405,-0.142,-0.1362,-0.1291,-0.1105,-0.0866,-0.0382,0.003,0.034,0.0697,0.0984,0.1227,0.1249,0.1338,0.132,0.1383,0.116,0.1128,0.1098,0.108,0.1403,0.1403,0.1645,0.1647,0.1649]}],[{"header":{"parameterUnit":"m.s-1","parameterCategory":2,"la1":30.2991,"la2":30.254,"lo1":-89.0895,"lo2":-89.0444,"dy":0.0017,"dx":0.0017,"nx":28,"ny":28,"refTime":"2024-05-11T21:00:00:Z","depth":"2","parameterNumber":2,"parameterNumberName":"U-component_of_CURRENTS"},"data":[0,0,0,0,0,0,0,0,0,0,0,0,0,0,0,0,0,0,0,0,0,0,0,0,0,0,0,0,0,0,0,0,0,0,0,0,0,0,0,0,0,0,0,0,0,0,0,0,0,0,0,0,0,0,0,0,0,0,-0.218,-0.218,0,-0.2184,-0.2184,-0.2184,-0.2161,-0.2161,-0.216,-0.216,-0.2145,-0.2145,-0.2145,0,0,0,0,0,0,0,0,0,0,0,0,0,-0.2154,-0.2155,-0.218,-0.218,-0.218,-0.2184,-0.2184,-0.2184,-0.2161,-0.2161,-0.216,-0.216,-0.2145,-0.2145,-0.2145,0,0,0,0,0,0,0,0,0,0,0,0,0,-0.2161,-0.2155,-0.218,-0.2171,-0.217,-0.2184,-0.2184,-0.2184,-0.2161,-0.2161,-0.216,-0.2159,-0.2145,-0.2145,-0.2145,-0.2161,0,0,-0.2145,-0.2145,0,0,0,0,0,0,0,0,-0.2161,-0.2162,-0.2172,-0.2171,-0.2171,-0.2173,-0.217,-0.2176,-0.2162,-0.2163,-0.216,-0.2159,-0.2154,-0.2153,-0.2154,-0.216,-0.216,-0.2145,-0.2145,-0.2145,-0.2145,0,0,0,0,0,0,0,-0.216,-0.2162,-0.218,-0.2172,-0.2171,-0.2167,-0.2167,-0.2171,-0.2161,-0.2163,-0.2162,-0.2165,-0.2153,-0.2154,-0.2153,-0.2159,-0.2145,-0.2145,-0.2145,-0.2145,-0.2156,-0.2156,0,0,0,0,0,0,-0.2164,-0.2161,-0.218,-0.218,-0.2165,-0.2168,-0.2168,-0.2172,-0.2162,-0.216,-0.2165,-0.2164,-0.2154,-0.2153,-0.2153,-0.2164,-0.2145,-0.2145,-0.2146,-0.2156,-0.2156,-0.2156,0,0,0,0,0,0,-0.2163,-0.2165,-0.218,-0.2172,-0.2174,-0.217,-0.2174,-0.2172,-0.2173,-0.2164,-0.2161,-0.2168,-0.2153,-0.2152,-0.2154,-0.2164,-0.2145,-0.2146,-0.2155,-0.2156,-0.2156,-0.2192,0,0,0,0,0,0,-0.2163,-0.2165,-0.2168,-0.2172,-0.2174,-0.2191,-0.2174,-0.2173,-0.2177,-0.2175,-0.2166,-0.2163,-0.2153,-0.2154,-0.2154,-0.2164,-0.2146,-0.2155,-0.2156,-0.2156,-0.2191,-0.2194,-0.2196,0,0,0,0,0,-0.2162,-0.2168,-0.2168,-0.217,-0.2178,-0.2192,-0.2192,-0.2186,-0.2178,-0.2183,-0.2173,-0.2164,-0.2156,-0.2154,-0.2154,-0.2164,-0.2155,-0.2155,-0.2156,-0.2189,-0.2193,-0.2196,0,0,0,0,0,0,-0.2159,-0.2167,-0.2166,-0.2175,-0.2185,-0.2188,-0.2191,-0.2191,-0.2188,-0.2184,-0.2171,-0.2169,-0.2174,-0.2164,-0.2162,-0.2167,-0.2153,-0.2153,-0.2178,-0.2181,-0.2184,-0.218,-0.2146,0,0,0,0,0,-0.2161,-0.2165,-0.2177,-0.2183,-0.2189,-0.2192,-0.2196,-0.2196,-0.2196,-0.2194,-0.2188,-0.2179,-0.2177,-0.2174,-0.2172,-0.2178,-0.2147,-0.2182,-0.2185,-0.2187,-0.2183,-0.2152,-0.2152,-0.2158,-0.2158,-0.2158,0,0,-0.2162,-0.2166,-0.2169,-0.2182,-0.2187,-0.2203,-0.2192,-0.2203,-0.2213,-0.2194,-0.2201,-0.2194,-0.2182,-0.2186,-0.2187,-0.2178,-0.2167,-0.2188,-0.219,-0.2184,-0.2153,-0.2152,-0.2151,-0.2158,-0.2158,-0.2158,0,0,-0.217,-0.2171,-0.2181,-0.2192,-0.2205,-0.221,-0.2217,-0.2227,-0.2225,-0.2239,-0.2222,-0.2215,-0.2222,-0.2205,-0.22,-0.2216,-0.2186,-0.2221,-0.2229,-0.22,-0.2199,-0.2198,-0.2146,-0.214,-0.2218,-0.2218,-0.2218,0,-0.2172,-0.2182,-0.2187,-0.2203,-0.221,-0.2216,-0.2233,-0.224,-0.2248,-0.2245,-0.2245,-0.2236,-0.2228,-0.2218,-0.2224,-0.2222,-0.2195,-0.222,-0.2203,-0.2202,-0.22,-0.2147,-0.214,-0.222,-0.222,-0.222,-0.222,0,-0.2188,-0.22,-0.2208,-0.2228,-0.224,-0.2252,-0.2267,-0.2276,-0.2279,-0.2282,-0.2279,-0.2265,-0.2254,-0.2254,-0.2248,-0.2232,-0.2212,-0.2214,-0.2196,-0.2202,-0.2145,-0.2137,-0.2223,-0.2222,-0.2222,-0.2221,0,0,-0.2179,-0.2213,-0.2214,-0.2223,-0.225,-0.2259,-0.2282,-0.2294,-0.2301,-0.2305,-0.2304,-0.2298,-0.2285,-0.2277,-0.2261,-0.2236,-0.2199,-0.2225,-0.2222,-0.2173,-0.2118,-0.2024,-0.2005,-0.2204,-0.2203,-0.2202,-0.2079,0,-0.2186,-0.2213,-0.2232,-0.2256,-0.2267,-0.2284,-0.2303,-0.2316,-0.2325,-0.2329,-0.2308,-0.2305,-0.2296,-0.2289,-0.2265,-0.2222,-0.2182,-0.2231,-0.2119,-0.2114,-0.2031,-0.1994,-0.1856,-0.1728,-0.207,-0.2069,-0.2068,0,-0.2186,-0.2204,-0.2227,-0.2257,-0.2265,-0.2285,-0.2303,-0.2323,-0.2335,-0.2343,-0.2335,-0.2324,-0.229,-0.2285,-0.2197,-0.2232,-0.2176,-0.2135,-0.213,-0.2023,-0.2005,-0.1779,-0.17,-0.2054,-0.2055,-0.2056,-0.2057,0,-0.2149,-0.2193,-0.2205,-0.2216,-0.226,-0.2272,-0.2295,-0.2319,-0.2327,-0.2344,-0.2344,-0.2318,-0.2289,-0.2234,-0.2151,-0.2178,-0.2043,-0.2066,-0.1918,-0.191,-0.1758,-0.1738,-0.199,-0.199,-0.1991,-0.1991,-0.1991,0,-0.2128,-0.2136,-0.219,-0.2194,-0.2208,-0.2253,-0.2266,-0.2293,-0.2322,-0.2306,-0.234,-0.23,-0.2277,-0.2201,-0.214,-0.1985,-0.2025,-0.1897,-0.1867,-0.1765,-0.1747,-0.2012,-0.2017,-0.1986,-0.1987,-0.1988,-0.1989,0,-0.2066,-0.2106,-0.2119,-0.2171,-0.2186,-0.2193,-0.2239,-0.2245,-0.2292,-0.2271,-0.2272,-0.2272,-0.2163,-0.2109,-0.1998,-0.194,-0.1826,-0.176,-0.1628,-0.1585,-0.1718,-0.1725,-0.1585,-0.1581,-0.1577,-0.1574,-0.1571,0,-0.2029,-0.2032,-0.2081,-0.2082,-0.2102,-0.2128,-0.2137,-0.2209,-0.2207,-0.2217,-0.2184,-0.2119,-0.2014,-0.1836,-0.1715,-0.1566,-0.167,-0.1385,-0.141,-0.1688,-0.1674,-0.1688,-0.17,-0.1216,-0.1211,-0.1207,-0.1203,0,-0.1946,-0.1968,-0.1977,-0.1982,-0.1994,-0.2008,-0.2027,-0.2026,-0.2077,-0.2053,-0.1974,-0.1902,-0.1745,-0.1522,-0.1375,-0.1287,-0.1407,-0.1289,-0.1591,-0.135,-0.1333,-0.1322,-0.1347,-0.1164,-0.1168,-0.1171,-0.1173,-0.1175,-0.1863,-0.1846,-0.1852,-0.1846,-0.1865,-0.1847,-0.1797,-0.1815,-0.1772,-0.1679,-0.171,-0.1527,-0.1487,-0.1145,-0.1046,-0.0975,-0.1084,-0.1053,-0.1069,-0.109,-0.1079,-0.1057,-0.0833,-0.0835,-0.0837,-0.0838,-0.0839,0,-0.1727,-0.1716,-0.1709,-0.1684,-0.1644,-0.1704,-0.1678,-0.1587,-0.1463,-0.1407,-0.1295,-0.1053,-0.0894,-0.086,-0.0672,-0.0643,-0.0676,-0.0633,-0.0684,-0.0721,-0.0754,-0.0732,-0.039,-0.0389,-0.0388,-0.0387,0,0,-0.1645,-0.1578,-0.1574,-0.1453,-0.144,-0.1318,-0.1266,-0.116,-0.1076,-0.0893,-0.0772,-0.0783,-0.0791,-0.0572,-0.0537,-0.043,-0.0576,-0.0401,-0.0755,-0.0849,-0.0882,-0.0981,-0.0984,0,0,0,0,0]},{"header":{"parameterUnit":"m.s-1","parameterCategory":2,"la1":30.2991,"la2":30.254,"lo1":-89.0895,"lo2":-89.0444,"dy":0.0017,"dx":0.0017,"nx":28,"ny":28,"refTime":"2024-05-11T21:00:00:Z","depth":"2","parameterNumber":3,"parameterNumberName":"V-component_of_CURRENTS"},"data":[0,0,0,0,0,0,0,0,0,0,0,0,0,0,0,0,0,0,0,0,0,0,0,0,0,0,0,0,0,0,0,0,0,0,0,0,0,0,0,0,0,0,0,0,0,0,0,0,0,0,0,0,0,0,0,0,0,0,-0.049,-0.049,0,-0.0451,-0.045,-0.045,-0.042,-0.042,-0.042,-0.042,-0.034,-0.0338,-0.0337,0,0,0,0,0,0,0,0,0,0,0,0,0,-0.0504,-0.0505,-0.049,-0.049,-0.0489,-0.0451,-0.045,-0.045,-0.042,-0.042,-0.042,-0.042,-0.0341,-0.0339,-0.0336,0,0,0,0,0,0,0,0,0,0,0,0,0,-0.0485,-0.0505,-0.049,-0.047,-0.0468,-0.0451,-0.045,-0.0449,-0.0421,-0.042,-0.042,-0.042,-0.0342,-0.0339,-0.0336,-0.0325,0,0,-0.0327,-0.0326,0,0,0,0,0,0,0,0,-0.0486,-0.0484,-0.0474,-0.0472,-0.0469,-0.044,-0.0426,-0.0406,-0.0421,-0.0438,-0.042,-0.0419,-0.0371,-0.0365,-0.0359,-0.0321,-0.0318,-0.0327,-0.0325,-0.0324,-0.0323,0,0,0,0,0,0,0,-0.0487,-0.0485,-0.0474,-0.0473,-0.0471,-0.0451,-0.0448,-0.0422,-0.0406,-0.0437,-0.0435,-0.0431,-0.0369,-0.0362,-0.0356,-0.0317,-0.0327,-0.0325,-0.0323,-0.0322,-0.0257,-0.0257,0,0,0,0,0,0,-0.0495,-0.0487,-0.0475,-0.0473,-0.0477,-0.0451,-0.0448,-0.045,-0.0407,-0.04,-0.0431,-0.043,-0.0367,-0.036,-0.0354,-0.0333,-0.0324,-0.0321,-0.032,-0.0257,-0.0257,-0.0257,0,0,0,0,0,0,-0.0496,-0.0495,-0.0477,-0.0479,-0.0475,-0.0452,-0.0454,-0.0449,-0.0443,-0.0403,-0.0396,-0.043,-0.0366,-0.0358,-0.0333,-0.033,-0.032,-0.0318,-0.0257,-0.0257,-0.0257,-0.0295,0,0,0,0,0,0,-0.0497,-0.0496,-0.0501,-0.048,-0.0476,-0.0472,-0.0454,-0.0449,-0.0441,-0.0439,-0.0399,-0.0392,-0.0365,-0.0337,-0.033,-0.0326,-0.0315,-0.0257,-0.0257,-0.0257,-0.0294,-0.0297,-0.0299,0,0,0,0,0,-0.0497,-0.0508,-0.0502,-0.0501,-0.0484,-0.0472,-0.0468,-0.0449,-0.0442,-0.0442,-0.0415,-0.0393,-0.0332,-0.0335,-0.0327,-0.0321,-0.0257,-0.0257,-0.0257,-0.0293,-0.0296,-0.0299,0,0,0,0,0,0,-0.0516,-0.0506,-0.0498,-0.0505,-0.0492,-0.0467,-0.0468,-0.0454,-0.0434,-0.0432,-0.0394,-0.0384,-0.0363,-0.0338,-0.0342,-0.0303,-0.029,-0.0288,-0.0321,-0.0323,-0.0326,-0.0325,-0.0313,0,0,0,0,0,-0.0524,-0.0531,-0.0513,-0.0518,-0.0514,-0.0492,-0.0486,-0.0473,-0.0452,-0.0443,-0.0415,-0.0383,-0.0356,-0.0337,-0.0312,-0.0289,-0.0252,-0.028,-0.0282,-0.0285,-0.0278,-0.0224,-0.0221,-0.0256,-0.0256,-0.0256,0,0,-0.0533,-0.0528,-0.0531,-0.0523,-0.0512,-0.051,-0.0487,-0.0482,-0.0477,-0.0437,-0.0422,-0.0394,-0.0354,-0.033,-0.0317,-0.0308,-0.0255,-0.0285,-0.0287,-0.0278,-0.0224,-0.022,-0.0217,-0.0256,-0.0256,-0.0256,0,0,-0.0556,-0.055,-0.0564,-0.0557,-0.0546,-0.0528,-0.0529,-0.0507,-0.0493,-0.0477,-0.0445,-0.0412,-0.0378,-0.034,-0.0318,-0.0317,-0.0275,-0.0314,-0.0318,-0.0266,-0.0263,-0.0259,-0.021,-0.0202,-0.0309,-0.031,-0.031,0,-0.0567,-0.0581,-0.0565,-0.0576,-0.0571,-0.0539,-0.0548,-0.0529,-0.0501,-0.0483,-0.0479,-0.0411,-0.0378,-0.0333,-0.0333,-0.032,-0.0288,-0.0312,-0.0269,-0.0265,-0.026,-0.0211,-0.0201,-0.0311,-0.0311,-0.0311,-0.0311,0,-0.0602,-0.061,-0.0617,-0.0619,-0.061,-0.0613,-0.0584,-0.0569,-0.0547,-0.052,-0.0479,-0.0434,-0.0389,-0.0375,-0.0352,-0.0305,-0.0291,-0.0284,-0.0263,-0.0259,-0.0207,-0.0196,-0.0314,-0.0313,-0.0313,-0.0312,0,0,-0.063,-0.0641,-0.0643,-0.065,-0.0634,-0.063,-0.0614,-0.0584,-0.0569,-0.0532,-0.0501,-0.0448,-0.0416,-0.0389,-0.0352,-0.0302,-0.0245,-0.0283,-0.0279,-0.0236,-0.0131,-0.0106,-0.0092,-0.0232,-0.0231,-0.0229,-0.0109,0,-0.0661,-0.0697,-0.0684,-0.07,-0.0713,-0.0675,-0.0662,-0.0628,-0.0591,-0.0553,-0.0487,-0.0451,-0.0423,-0.0403,-0.0348,-0.0271,-0.0218,-0.0278,-0.0139,-0.0135,-0.0114,-0.0079,-0.009,0.0018,-0.0098,-0.0096,-0.0095,0,-0.0698,-0.0717,-0.075,-0.0744,-0.0744,-0.0745,-0.071,-0.0694,-0.0625,-0.0595,-0.0536,-0.0484,-0.0401,-0.0387,-0.0242,-0.0285,-0.0211,-0.015,-0.0144,-0.0097,-0.009,-0.0003,0.0042,-0.0076,-0.0078,-0.0079,-0.008,0,-0.0737,-0.0755,-0.0784,-0.0788,-0.078,-0.0778,-0.0764,-0.0711,-0.0691,-0.062,-0.0588,-0.0491,-0.0432,-0.0333,-0.0204,-0.0223,-0.0042,-0.0052,0.0043,0.0046,0.0078,0.008,0.0053,0.0053,0.0052,0.0052,0.0052,0,-0.0778,-0.0796,-0.0811,-0.0831,-0.0853,-0.0826,-0.0826,-0.0795,-0.074,-0.0698,-0.0617,-0.055,-0.0415,-0.0294,-0.0196,-0.0033,-0.0032,0.0059,0.0086,0.0063,0.0062,0.001,0.0003,0.0057,0.0056,0.0055,0.0054,0,-0.0818,-0.0829,-0.0866,-0.0876,-0.088,-0.09,-0.0882,-0.0873,-0.0813,-0.0753,-0.0729,-0.058,-0.0413,-0.0272,-0.0087,-0.0011,0.0128,0.0183,0.0146,0.0167,0.0177,0.0167,0.03,0.0302,0.0304,0.0306,0.0307,0,-0.0844,-0.0873,-0.0912,-0.0938,-0.0948,-0.0966,-0.0972,-0.0927,-0.0897,-0.0756,-0.0717,-0.0544,-0.0389,-0.0116,0.0043,0.0228,0.0209,0.0308,0.0272,0.0194,0.0206,0.0193,0.0181,0.0299,0.03,0.0301,0.0302,0,-0.089,-0.0909,-0.0942,-0.0997,-0.1025,-0.1041,-0.1031,-0.1009,-0.092,-0.0837,-0.0666,-0.0529,-0.0255,-0.0028,0.019,0.028,0.0272,0.0331,0.0287,0.0228,0.02,0.0209,0.0197,0.031,0.0309,0.0308,0.0308,0.0308,-0.092,-0.096,-0.1003,-0.1049,-0.1083,-0.1084,-0.1061,-0.1003,-0.0924,-0.0733,-0.0624,-0.0363,-0.0193,0.0168,0.0287,0.0389,0.0377,0.0394,0.0389,0.0383,0.0351,0.0327,0.0455,0.0455,0.0455,0.0455,0.0455,0,-0.0949,-0.099,-0.1042,-0.1091,-0.1117,-0.1123,-0.1071,-0.0995,-0.0857,-0.0663,-0.0471,-0.0201,0.0032,0.0209,0.0389,0.0471,0.0438,0.0471,0.0412,0.0404,0.0398,0.0363,0.0472,0.0472,0.0473,0.0473,0,0,-0.0964,-0.102,-0.1046,-0.1097,-0.1124,-0.1097,-0.1046,-0.0903,-0.0731,-0.0488,-0.0278,-0.008,0.0116,0.0244,0.033,0.042,0.0384,0.0417,0.0394,0.0305,0.0297,0.0346,0.0285,0,0,0,0,0]}],[{"header":{"parameterUnit":"m.s-1","parameterCategory":2,"la1":30.2991,"la2":30.254,"lo1":-89.0895,"lo2":-89.0444,"dy":0.0017,"dx":0.0017,"nx":28,"ny":28,"refTime":"2024-05-11T21:00:00:Z","depth":"4","parameterNumber":2,"parameterNumberName":"U-component_of_CURRENTS"},"data":[0,0,0,0,0,0,0,0,0,0,0,0,0,0,0,0,0,0,0,0,0,0,0,0,0,0,0,0,0,0,0,0,0,0,0,0,0,0,0,0,0,0,0,0,0,0,0,0,0,0,0,0,0,0,0,0,0,0,-0.1507,-0.1508,0,-0.1542,-0.1542,-0.1542,-0.157,-0.1571,-0.1571,-0.1571,-0.161,-0.161,-0.1611,0,0,0,0,0,0,0,0,0,0,0,0,0,-0.1457,-0.1458,-0.1507,-0.1508,-0.1508,-0.1542,-0.1542,-0.1542,-0.157,-0.1571,-0.1571,-0.1572,-0.161,-0.161,-0.1611,0,0,0,0,0,0,0,0,0,0,0,0,0,-0.1482,-0.1458,-0.1507,-0.1527,-0.1529,-0.1542,-0.1542,-0.1542,-0.157,-0.1571,-0.1571,-0.1572,-0.1609,-0.161,-0.1611,-0.1605,0,0,-0.1614,-0.1614,0,0,0,0,0,0,0,0,-0.1481,-0.1484,-0.1524,-0.1526,-0.1528,-0.1554,-0.1538,-0.1564,-0.157,-0.1553,-0.1571,-0.1572,-0.1592,-0.1594,-0.1597,-0.1607,-0.1608,-0.1614,-0.1615,-0.1615,-0.1615,0,0,0,0,0,0,0,-0.1479,-0.1483,-0.152,-0.1524,-0.1527,-0.1532,-0.1536,-0.1543,-0.1568,-0.1555,-0.1557,-0.1563,-0.1593,-0.1596,-0.1598,-0.1609,-0.1614,-0.1615,-0.1616,-0.1616,-0.1662,-0.1662,0,0,0,0,0,0,-0.1478,-0.1481,-0.1519,-0.1521,-0.1507,-0.1532,-0.1537,-0.1544,-0.1568,-0.1572,-0.1562,-0.1564,-0.1594,-0.1597,-0.16,-0.1643,-0.1615,-0.1616,-0.1617,-0.1661,-0.1662,-0.1663,0,0,0,0,0,0,-0.1476,-0.1481,-0.1517,-0.1503,-0.1508,-0.1533,-0.154,-0.1544,-0.1573,-0.1574,-0.1578,-0.159,-0.1595,-0.1599,-0.1626,-0.1643,-0.1616,-0.1617,-0.166,-0.1661,-0.1662,-0.1698,0,0,0,0,0,0,-0.1475,-0.148,-0.1496,-0.1503,-0.1509,-0.154,-0.154,-0.1544,-0.1575,-0.1578,-0.1598,-0.1601,-0.1596,-0.1625,-0.1627,-0.1644,-0.1618,-0.166,-0.1661,-0.1662,-0.1696,-0.17,-0.1704,0,0,0,0,0,-0.1473,-0.1486,-0.1496,-0.1501,-0.1526,-0.1541,-0.1545,-0.1563,-0.1576,-0.1591,-0.1606,-0.1602,-0.1634,-0.1626,-0.1629,-0.1646,-0.1659,-0.1661,-0.1662,-0.1695,-0.17,-0.1704,0,0,0,0,0,0,-0.1473,-0.1491,-0.1502,-0.1521,-0.1539,-0.1547,-0.1566,-0.1578,-0.1602,-0.1613,-0.1613,-0.1617,-0.1646,-0.1642,-0.1633,-0.1662,-0.1645,-0.1647,-0.1669,-0.1673,-0.1677,-0.1663,-0.1619,0,0,0,0,0,-0.148,-0.1497,-0.1513,-0.1531,-0.1543,-0.156,-0.1574,-0.1588,-0.1604,-0.1616,-0.1631,-0.1642,-0.1649,-0.166,-0.1666,-0.1685,-0.166,-0.1697,-0.17,-0.1704,-0.1693,-0.1676,-0.1677,-0.1667,-0.1667,-0.1667,0,0,-0.1486,-0.1498,-0.151,-0.1533,-0.1549,-0.1567,-0.1571,-0.16,-0.1617,-0.1616,-0.1653,-0.1661,-0.1658,-0.1678,-0.169,-0.168,-0.1693,-0.1705,-0.1708,-0.1696,-0.1678,-0.1679,-0.168,-0.1668,-0.1668,-0.1668,0,0,-0.1497,-0.1519,-0.1536,-0.1552,-0.1582,-0.159,-0.1605,-0.1631,-0.1648,-0.1683,-0.168,-0.1694,-0.1722,-0.171,-0.1708,-0.1736,-0.1715,-0.175,-0.1757,-0.1742,-0.1742,-0.1742,-0.1708,-0.1704,-0.175,-0.175,-0.175,0,-0.1507,-0.1524,-0.1544,-0.1562,-0.1577,-0.1604,-0.1623,-0.1642,-0.1675,-0.1686,-0.1704,-0.1728,-0.173,-0.1729,-0.1738,-0.1743,-0.1728,-0.1742,-0.1746,-0.1745,-0.1745,-0.1709,-0.1705,-0.1752,-0.1752,-0.1752,-0.1752,0,-0.1519,-0.1545,-0.1557,-0.1587,-0.1608,-0.163,-0.1655,-0.1685,-0.1715,-0.1728,-0.1756,-0.1759,-0.1767,-0.1774,-0.1766,-0.1763,-0.1751,-0.1754,-0.1733,-0.1748,-0.171,-0.1705,-0.1755,-0.1754,-0.1754,-0.1753,0,0,-0.1505,-0.1556,-0.1563,-0.1581,-0.1622,-0.1637,-0.1673,-0.1699,-0.1723,-0.1759,-0.1777,-0.1787,-0.1793,-0.1789,-0.1783,-0.1769,-0.1751,-0.1764,-0.1762,-0.1726,-0.1708,-0.159,-0.1573,-0.1763,-0.1763,-0.1763,-0.1681,0,-0.1508,-0.1543,-0.1569,-0.1606,-0.1623,-0.1659,-0.1687,-0.1719,-0.1751,-0.1779,-0.1781,-0.1802,-0.1797,-0.1809,-0.1793,-0.1766,-0.174,-0.1772,-0.1701,-0.1698,-0.1589,-0.1564,-0.1761,-0.1677,-0.1676,-0.1675,-0.1675,0,-0.1501,-0.1526,-0.1562,-0.1611,-0.1624,-0.1655,-0.17,-0.173,-0.1768,-0.1794,-0.1812,-0.1821,-0.1806,-0.1808,-0.1754,-0.178,-0.1741,-0.1715,-0.1712,-0.1582,-0.157,-0.166,-0.1665,-0.1666,-0.1666,-0.1667,-0.1668,0,-0.1458,-0.1516,-0.1544,-0.1561,-0.1623,-0.1652,-0.1689,-0.1736,-0.176,-0.1804,-0.1822,-0.1821,-0.1815,-0.1783,-0.1728,-0.1749,-0.1658,-0.1679,-0.1529,-0.1521,-0.1638,-0.1639,-0.1626,-0.1626,-0.1626,-0.1627,-0.1627,0,-0.1424,-0.1452,-0.1534,-0.1546,-0.1585,-0.164,-0.1682,-0.1722,-0.1771,-0.1769,-0.1825,-0.1801,-0.1811,-0.1764,-0.1723,-0.1591,-0.1648,-0.1506,-0.1484,-0.1655,-0.1659,-0.1633,-0.1635,-0.1624,-0.1624,-0.1625,-0.1625,0,-0.1362,-0.1418,-0.1456,-0.1536,-0.1565,-0.1594,-0.1674,-0.1691,-0.1758,-0.1755,-0.1767,-0.1784,-0.1705,-0.1687,-0.1615,-0.1556,-0.1466,-0.1406,-0.1567,-0.156,-0.1343,-0.1348,-0.1229,-0.1224,-0.122,-0.1217,-0.1214,0,-0.1326,-0.1343,-0.1437,-0.1459,-0.1499,-0.1557,-0.1584,-0.167,-0.1675,-0.1704,-0.1673,-0.1643,-0.1623,-0.142,-0.1431,-0.1332,-0.1315,-0.1279,-0.1324,-0.1308,-0.1299,-0.1311,-0.1322,-0.1207,-0.1206,-0.1205,-0.1204,0,-0.125,-0.1301,-0.1331,-0.1376,-0.1416,-0.1451,-0.1493,-0.1489,-0.1546,-0.1627,-0.1518,-0.1462,-0.1365,-0.1303,-0.1236,-0.1174,-0.1316,-0.1235,-0.1244,-0.1286,-0.128,-0.1278,-0.1293,-0.1189,-0.1191,-0.1192,-0.1193,0,-0.119,-0.1192,-0.1235,-0.1262,-0.1312,-0.1302,-0.1353,-0.1331,-0.1348,-0.1389,-0.1336,-0.1299,-0.1321,-0.1215,-0.1148,-0.1082,-0.107,-0.1053,-0.1072,-0.1088,-0.1081,-0.1055,-0.0851,0,0,0,0,0,-0.1114,-0.1092,-0.111,-0.1118,-0.1167,-0.1186,-0.1258,-0.1307,-0.1366,-0.1245,-0.1288,-0.1184,-0.1079,-0.1076,-0.0972,-0.1087,-0.1083,-0.0965,-0.1078,-0.1108,-0.1125,-0.113,0,0,0,0,0,0,-0.1051,-0.106,-0.1058,-0.0989,-0.0969,-0.0991,-0.1031,-0.1082,-0.1029,-0.1098,-0.1041,-0.1101,-0.1016,-0.1088,-0.0934,-0.0934,-0.098,-0.0966,-0.0963,-0.1098,-0.1113,-0.1127,-0.1139,0,0,0,0,0]},{"header":{"parameterUnit":"m.s-1","parameterCategory":2,"la1":30.2991,"la2":30.254,"lo1":-89.0895,"lo2":-89.0444,"dy":0.0017,"dx":0.0017,"nx":28,"ny":28,"refTime":"2024-05-11T21:00:00:Z","depth":"4","parameterNumber":3,"parameterNumberName":"V-component_of_CURRENTS"},"data":[0,0,0,0,0,0,0,0,0,0,0,0,0,0,0,0,0,0,0,0,0,0,0,0,0,0,0,0,0,0,0,0,0,0,0,0,0,0,0,0,0,0,0,0,0,0,0,0,0,0,0,0,0,0,0,0,0,0,-0.0357,-0.0357,0,-0.0345,-0.0345,-0.0345,-0.0335,-0.0335,-0.0335,-0.0335,-0.0294,-0.0293,-0.0292,0,0,0,0,0,0,0,0,0,0,0,0,0,-0.0345,-0.0346,-0.0357,-0.0357,-0.0357,-0.0345,-0.0345,-0.0344,-0.0335,-0.0335,-0.0335,-0.0335,-0.0294,-0.0293,-0.0292,0,0,0,0,0,0,0,0,0,0,0,0,0,-0.0343,-0.0346,-0.0357,-0.0351,-0.0351,-0.0345,-0.0345,-0.0344,-0.0335,-0.0335,-0.0335,-0.0335,-0.0294,-0.0293,-0.0291,-0.0283,0,0,-0.0286,-0.0286,0,0,0,0,0,0,0,0,-0.0343,-0.0344,-0.0352,-0.0352,-0.0351,-0.0342,-0.0325,-0.0323,-0.0335,-0.0341,-0.0335,-0.0335,-0.0307,-0.0305,-0.0303,-0.0281,-0.0279,-0.0286,-0.0285,-0.0285,-0.0284,0,0,0,0,0,0,0,-0.0344,-0.0344,-0.0352,-0.0352,-0.0351,-0.034,-0.0339,-0.0325,-0.0324,-0.034,-0.034,-0.0339,-0.0307,-0.0304,-0.0301,-0.0279,-0.0286,-0.0285,-0.0284,-0.0283,-0.0244,-0.0244,0,0,0,0,0,0,-0.0347,-0.0344,-0.0353,-0.0352,-0.0347,-0.034,-0.034,-0.0345,-0.0325,-0.0322,-0.0339,-0.0338,-0.0307,-0.0303,-0.03,-0.028,-0.0285,-0.0283,-0.0282,-0.0244,-0.0244,-0.0244,0,0,0,0,0,0,-0.0347,-0.0348,-0.0353,-0.0348,-0.0347,-0.0341,-0.0346,-0.0344,-0.0347,-0.0324,-0.0321,-0.0344,-0.0307,-0.0302,-0.0292,-0.0278,-0.0283,-0.0281,-0.0244,-0.0244,-0.0244,-0.0246,0,0,0,0,0,0,-0.0347,-0.0349,-0.0357,-0.0348,-0.0348,-0.0354,-0.0346,-0.0344,-0.0347,-0.0346,-0.0327,-0.0323,-0.0306,-0.0294,-0.029,-0.0276,-0.028,-0.0244,-0.0244,-0.0244,-0.0246,-0.0246,-0.0245,0,0,0,0,0,-0.0347,-0.0357,-0.0358,-0.0359,-0.0359,-0.0354,-0.0353,-0.0347,-0.0347,-0.0349,-0.0338,-0.0324,-0.029,-0.0293,-0.0289,-0.0274,-0.0244,-0.0244,-0.0244,-0.0246,-0.0246,-0.0245,0,0,0,0,0,0,-0.0355,-0.0357,-0.0358,-0.0369,-0.0364,-0.0352,-0.0356,-0.0352,-0.0346,-0.0348,-0.0326,-0.0321,-0.0307,-0.0294,-0.0298,-0.0263,-0.0263,-0.0262,-0.0266,-0.0266,-0.0266,-0.0258,-0.0279,0,0,0,0,0,-0.0362,-0.0373,-0.0367,-0.0376,-0.0376,-0.0369,-0.0368,-0.0364,-0.0355,-0.0353,-0.0339,-0.0321,-0.0301,-0.0288,-0.0275,-0.0256,-0.0233,-0.0243,-0.0243,-0.0243,-0.0234,-0.0184,-0.0178,-0.0243,-0.0243,-0.0243,0,0,-0.0368,-0.0371,-0.0376,-0.0379,-0.0377,-0.0374,-0.0368,-0.0371,-0.0363,-0.0349,-0.0339,-0.0326,-0.03,-0.0279,-0.027,-0.0265,-0.0217,-0.0242,-0.0242,-0.0233,-0.0183,-0.0177,-0.0171,-0.0243,-0.0243,-0.0243,0,0,-0.0378,-0.0387,-0.0397,-0.0396,-0.0396,-0.0387,-0.039,-0.0383,-0.0375,-0.0368,-0.035,-0.0325,-0.0309,-0.0272,-0.0254,-0.0244,-0.0224,-0.0248,-0.0231,-0.0184,-0.0177,-0.0172,-0.0151,-0.0143,-0.024,-0.024,-0.024,0,-0.0384,-0.0396,-0.0397,-0.0403,-0.0402,-0.0394,-0.0396,-0.0385,-0.0374,-0.0361,-0.0368,-0.0321,-0.0297,-0.0249,-0.0242,-0.024,-0.0225,-0.0234,-0.0182,-0.0176,-0.017,-0.0149,-0.0141,-0.024,-0.024,-0.024,-0.024,0,-0.0398,-0.0408,-0.0413,-0.0417,-0.0414,-0.0418,-0.0401,-0.0395,-0.0389,-0.037,-0.0339,-0.0308,-0.0275,-0.0261,-0.0247,-0.0191,-0.0201,-0.0193,-0.018,-0.0163,-0.0144,-0.0135,-0.024,-0.024,-0.024,-0.024,0,0,-0.0407,-0.0421,-0.0423,-0.0431,-0.0424,-0.0425,-0.0408,-0.0385,-0.0376,-0.0353,-0.0329,-0.0277,-0.0261,-0.0238,-0.0213,-0.0164,-0.011,-0.0162,-0.0159,-0.0138,-0.0026,-0.0044,-0.0036,-0.0097,-0.0095,-0.0093,-0.0036,0,-0.0417,-0.0439,-0.0434,-0.0444,-0.0453,-0.0436,-0.0423,-0.04,-0.038,-0.0355,-0.03,-0.0277,-0.0251,-0.0242,-0.0183,-0.0135,-0.0084,-0.0127,-0.0049,-0.0046,-0.006,-0.0024,-0.0087,-0.0029,-0.0027,-0.0025,-0.0024,0,-0.0429,-0.0444,-0.0464,-0.0468,-0.0469,-0.0471,-0.0454,-0.0441,-0.0391,-0.0375,-0.0326,-0.0294,-0.0218,-0.0207,-0.0091,-0.0126,-0.0071,-0.003,-0.0026,-0.0031,-0.0046,-0.0045,-0.0008,-0.0009,-0.001,-0.0011,-0.0012,0,-0.0447,-0.046,-0.0481,-0.0486,-0.0488,-0.049,-0.0486,-0.0451,-0.0442,-0.0391,-0.0378,-0.029,-0.0255,-0.0166,-0.0077,-0.0085,0.0041,0.0042,0.0081,0.0079,0.0077,0.007,0.0138,0.0138,0.0137,0.0137,0.0137,0,-0.0459,-0.0475,-0.0501,-0.0517,-0.0542,-0.0526,-0.0538,-0.0517,-0.0485,-0.0463,-0.0397,-0.0357,-0.0241,-0.0158,-0.0077,0.0026,0.0046,0.0095,0.0104,0.007,0.0062,0.0082,0.0075,0.0139,0.0139,0.0138,0.0138,0,-0.0475,-0.049,-0.0524,-0.0546,-0.0558,-0.058,-0.0592,-0.0592,-0.0556,-0.0526,-0.0511,-0.0404,-0.0291,-0.0182,-0.0038,0.0019,0.0119,0.0153,0.0093,0.0096,0.0122,0.0113,0.0202,0.0202,0.0202,0.0202,0.0202,0,-0.0485,-0.0508,-0.0562,-0.0594,-0.0611,-0.0643,-0.0662,-0.064,-0.0627,-0.0545,-0.0522,-0.0414,-0.0331,-0.0138,-0.0032,0.0115,0.0138,0.0175,0.0172,0.0134,0.0134,0.0126,0.0118,0.0202,0.0202,0.0203,0.0203,0,-0.0507,-0.0535,-0.0569,-0.0636,-0.0676,-0.0709,-0.0722,-0.0711,-0.066,-0.0637,-0.0509,-0.0398,-0.027,-0.0125,-0.0017,0.009,0.0141,0.0176,0.0177,0.0175,0.0136,0.0134,0.0126,0.0203,0.0203,0.0203,0.0203,0,-0.0528,-0.0564,-0.0615,-0.0666,-0.0722,-0.074,-0.0746,-0.0704,-0.068,-0.057,-0.0529,-0.0379,-0.0291,-0.0137,-0.0034,0.0063,0.0089,0.0113,0.0117,0.0118,0.0073,0.001,0.006,0,0,0,0,0,-0.0542,-0.058,-0.0635,-0.069,-0.0743,-0.0762,-0.0766,-0.0754,-0.07,-0.061,-0.056,-0.043,-0.0246,-0.0164,-0.0066,-0.0052,0.0081,0.0061,0.0105,0.0205,0.0205,0.0166,0,0,0,0,0,0,-0.0553,-0.0611,-0.0635,-0.0693,-0.0725,-0.077,-0.0765,-0.073,-0.0662,-0.0594,-0.0489,-0.0426,-0.0249,-0.03,-0.0069,-0.0041,-0.0004,0.0147,0.0149,0.0206,0.0205,0.0205,0.0164,0,0,0,0,0]}]]